Portada
METAR-TAF:

METAR-TAF

Aeropuertos :

Aeropuerto de Saint-Étienne - Bouthéon

Saint-Etienne, Francia

latitud: 45-32N, longitud: 004-18E, altitud: 404 m

Observación

El informe se hizo hace 5 minutos, a las 05:00 UTC
Viento 3 kt con dirección variable
Temperatura 3°C
Humedad 93%
Presión 1012 hPa
Visibilidad 10 km o más
Cielo cubierto a una altura de 2900 ft

METAR: LFMH 040500Z AUTO VRB03KT 9999 OVC029 03/02 Q1012

Hora: 06:05 (05:05 UTC)


TAF: falta

Observaciones y pronósticos meteorológicos de más de 4000 aeropuertos (mensajes METAR y TAF).

Los puntos amarillos y rojos representan las estaciones disponibles.

Ponga el ratón en el punto deseado para ver el nombre de la estación.

Haga clic para ver las observaciones y los pronósticos meteorológicos.

Para cambiar el mapa : haga clic en los botones verdes con una cruz de color negro para hacer un zoom, en el botón verde con un guión para alejar o en las flechas verdes para mapas adyacentes.


METAR-TAF: